Regional Weather Roundup
Issued by NWS

Home | Current Version | Previous Version | Text Only | Print | Product List | Glossary Off
Versions: 1 2 3 4 5 6 7 8 9 10 11 12 13 14 15 16 17 18 19 20 21 22 23 24 25 26 27 28 29 30 31 32 33 34 35 36 37 38 39 40 41 42 43 44 45 46 47 48 49 50

000
ASUS45 KCYS 011010
RWRWY

WYOMING REGIONAL WEATHER ROUNDUP
NATIONAL WEATHER SERVICE CHEYENNE WY
400 AM MDT SAT AUG 01 2015

NOTE:  "FAIR" INDICATES FEW OR NO CLOUDS BELOW 12,000 FEET
WITH NO SIGNIFICANT WEATHER AND/OR OBSTRUCTIONS TO VISIBILITY.

WYZ001-011100-
YELLOWSTONE NATIONAL PARK

CITY           SKY/WX    TMP DP  RH WIND       PRES   REMARKS
LK YELLOWSTONE   N/A     39  29  67 NW3       30.44S
W YELLOWSTONE  NOT AVBL

$$
WYZ002>013-054>058-071-098>099-011100-
NORTHERN WYOMING

CITY           SKY/WX    TMP DP  RH WIND       PRES   REMARKS
JACKSON        NOT AVBL
CODY           FAIR      66  30  26 SW6       30.20S
GREYBULL       FAIR      62  39  42 SE6       30.09R
WORLAND        FAIR      62  33  33 S7        30.11S
SHERIDAN       FAIR      70  38  31 NW12      30.10S
BUFFALO        FAIR      68  36  30 W12       30.16F
GILLETTE       FAIR      64  49  57 S5        30.10F
HULETT         FAIR      68  50  52 W5        30.10F
NEWCASTLE      FAIR      70  45  40 SE6       30.11F

$$
WYZ014>020-022>026-101>103-011100-
CENTRAL WYOMING

CITY           SKY/WX    TMP DP  RH WIND       PRES   REMARKS
BIG PINEY      FAIR      49  31  49 CALM      30.33F
PINEDALE       FAIR      45  34  65 NW6       30.34S
DUBOIS         FAIR      50  30  46 NW10      30.36S
LANDER         FAIR      67  26  21 SW14      30.21S
RIVERTON       FAIR      63  31  30 NW13      30.21S
CASPER         FAIR      56  38  50 W3        30.18S
DOUGLAS        FAIR      58  48  69 S3        30.15S

$$
WYZ021-027>030-104>119-011100-
SOUTHERN WYOMING

CITY           SKY/WX    TMP DP  RH WIND       PRES   REMARKS
EVANSTON       FAIR      57  27  31 SE6       30.33S
KEMMERER       FAIR      52  32  46 N12       30.34S
FORT BRIDGER   SUNNY     63  27  25 W7        30.34F
ROCK SPRINGS   FAIR      60  26  27 SW6       30.28F
DIXON          FAIR      50  33  51 CALM      30.31R
RAWLINS        FAIR      51  37  58 N5        30.27F
SARATOGA       FAIR      52  41  66 CALM      30.30S
LARAMIE        FAIR      51  44  77 SW5       30.31F
CHEYENNE       FAIR      57  50  77 W6        30.24F
TORRINGTON     FAIR      64  52  64 SE5       30.10F
PINE BLUFFS    FAIR      61  52  72 SW8       30.20S

$$


USA.gov is the U.S. government's official web portal to all federal, state and local government web resources and services.